Powrót do katalogu

CZ-6A DEB

AktywnyPO
NORAD 61419·DEBRIS·🇨🇳 China

Wystrzelony Aug 6, 2024 z Taiyuan Satellite Launch Center

Loading…

Następne Przeloty (najbliższe 24 godziny)

TLE

ŚwieżeSource: Space-Track

Epoka: Sep 14, 2026, 10:57 UTC

1 61419U 24140YL  26257.45631592  .00005356  00000-0  66130-3 0  9997
2 61419  88.9687 254.6736 0099321 243.2801 115.8231 14.79215536108953

Śledź CZ-6A DEB w czasie rzeczywistym z AllMySat

Download on the App Store